Terminal Aerodrome Forecast
Issued by NWS

Home | Current Version | Previous Version | Text Only | Print | Product List | Glossary On
Versions: 1 2 3 4 5 6 7 8 9 10 11 12 13 14 15 16 17 18 19 20 21 22 23 24 25 26 27 28 29 30 31
000
FTUS43 KGRR 020800 AAC
TAFLAN
TAF AMD
KLAN 020839Z 0209/0306 13008KT 3SM BR SCT004 SCT100
     FM021300 15008KT 4SM -SHRA BR SCT025 OVC035
     FM021800 16008KT P6SM VCSH BKN035
     FM030300 15010KT 3SM -TSRA BR BKN025CB=

USA.gov is the U.S. government's official web portal to all federal, state and local government web resources and services.